Theta_e
346 344 345 348 349 347 347 346 348 351 349 347 346 343 342 342 342 343 347 349 347 348 347 345 343 343 343 340 338 337 336 335 335 336 336 337 338 339
347 347 346 347 346 348 349 348 349 349 352 346 347 347 345 342 343 343 346 347 346 345 343 342 341 340 340 339 338 336 335 334 334 335 335 336 339 339
351 350 351 350 349 348 349 347 349 350 349 347 348 347 347 347 346 345 346 344 346 344 341 341 340 340 340 339 337 336 335 334 333 334 334 339 339 341
353 352 352 350 349 349 350 349 350 348 348 348 348 346 346 346 347 346 344 344 343 343 341 341 341 340 340 338 337 336 335 334 333 333 336 340 341 342
353 353 351 350 348 349 351 348 348 347 345 348 346 345 345 342 343 343 343 343 341 341 340 341 341 341 340 337 337 337 337 336 333 333 337 341 341 341
352 350 350 348 349 350 350 351 348 346 346 346 345 345 345 345 342 341 343 341 341 340 341 340 341 341 339 338 337 336 337 337 334 332 338 341 342 342
350 349 349 350 351 352 351 349 348 346 346 343 344 343 343 341 341 343 341 343 343 343 342 343 341 339 339 338 337 335 336 336 333 331 337 340 341 341
350 350 351 350 350 348 348 348 348 347 344 343 344 342 343 342 342 342 342 340 340 342 341 342 341 341 340 339 338 336 336 336 333 331 334 339 341 340
349 352 353 352 350 350 348 347 347 346 345 346 346 345 345 344 344 345 342 340 340 341 342 342 341 339 338 338 336 336 336 337 333 332 333 339 339 340
349 353 354 352 351 350 349 348 347 346 345 344 346 347 347 346 345 345 344 342 341 341 340 341 339 339 338 337 336 335 336 336 334 332 332 337 338 339
349 351 349 349 351 347 349 348 348 347 345 344 344 345 344 344 344 344 343 341 341 339 340 339 338 339 338 337 336 335 337 336 334 333 332 335 338 339
342 342 346 348 348 347 347 348 348 347 346 344 343 343 342 343 343 343 344 343 342 341 339 339 339 338 337 338 336 337 335 336 334 333 332 334 337 338
340 341 344 343 342 344 345 347 347 347 347 346 346 345 345 344 342 341 344 343 342 341 340 339 339 338 338 337 338 336 336 336 333 334 333 332 335 337
341 341 340 340 340 340 341 340 341 342 344 345 345 345 344 344 343 343 343 343 342 342 342 339 340 339 339 338 338 337 335 335 334 334 333 332 333 335
338 337 337 337 338 335 339 339 339 336 343 343 343 343 343 344 344 344 342 341 340 340 341 341 340 340 339 339 339 337 337 334 332 335 333 332 333 334
336 338 338 337 337 336 336 335 337 337 337 338 340 339 340 342 342 342 341 339 337 336 335 336 336 337 338 338 339 339 337 336 334 332 334 333 331 331
327 329 329 328 328 328 328 328 330 332 330 332 335 337 338 338 338 339 338 338 336 336 336 336 335 334 334 335 337 337 338 337 337 334 334 332 332 331
330 330 330 330 330 328 329 329 329 329 329 331 334 336 335 335 334 335 335 335 335 334 334 334 335 335 334 333 333 335 336 336 336 336 333 333 333 332
326 327 327 327 326 326 327 328 328 328 329 330 333 332 332 333 333 332 334 335 335 334 335 335 335 335 335 335 333 333 333 335 336 335 334 331 332 332
323 323 323 322 322 323 323 324 325 326 326 327 330 331 332 332 332 332 333 333 333 333 333 333 333 333 334 334 334 320 320 325 330 334 333 332 331 331
322 322 322 322 322 322 322 321 322 323 324 325 326 328 329 329 330 331 331 331 331 331 331 331 330 329 327 326 321 311 313 319 323 328 328 327 326 325
323 323 320 320 321 322 322 321 322 322 323 322 322 323 324 325 324 325 327 326 327 327 326 326 324 324 325 327 319 312 311 313 318 320 320 321 320 320
323 323 322 320 320 321 320 321 321 321 321 321 322 321 322 322 323 322 322 322 322 323 323 321 321 321 321 319 317 316 313 312 312 312 314 315 315 315
Wind_Speed
33 30 31 25 20 22 24 22 16 11 11 12 8 8 11 14 17 17 14 13 15 16 11 9 7 9 9 11 14 15 15 16 17 18 19 19 19 19
23 20 23 20 21 19 18 17 18 18 11 15 12 10 12 15 14 14 11 12 12 11 11 10 10 10 13 12 13 14 15 17 17 18 18 18 18 17
20 20 18 18 18 18 17 17 17 16 14 19 13 12 9 9 9 7 9 10 10 13 13 13 12 13 12 12 14 15 15 16 17 18 18 17 15 14
20 19 18 17 18 16 16 17 16 17 16 15 16 12 8 7 7 8 7 10 11 12 12 13 14 14 14 12 12 13 14 15 16 16 16 14 13 12
19 20 19 18 18 17 18 17 19 19 19 15 15 9 6 5 6 8 9 11 12 12 13 14 14 16 14 11 12 14 15 15 15 14 13 11 10 11
18 18 18 19 19 18 16 18 19 19 14 14 12 12 9 6 8 7 8 12 12 14 16 16 16 16 16 15 15 17 16 15 14 12 10 8 9 10
18 18 19 19 19 18 15 15 18 18 12 12 12 9 9 7 7 6 7 7 8 9 11 11 12 14 17 20 21 20 17 15 13 11 10 10 10 11
20 19 19 20 20 18 18 17 15 16 14 11 12 12 13 11 10 10 8 4 4 9 12 12 12 14 15 17 20 20 18 16 15 13 13 15 15 14
21 19 18 17 20 16 18 17 17 17 18 14 16 15 12 13 11 10 9 9 8 6 10 11 11 14 13 13 16 18 19 18 16 15 15 17 17 16
24 20 19 18 18 18 16 17 17 16 21 19 18 15 13 9 11 9 9 9 9 11 10 11 10 13 11 12 16 15 18 18 17 15 16 18 17 17
23 19 18 21 18 19 17 16 15 16 17 20 20 18 15 15 12 10 10 9 8 7 11 11 11 11 11 13 12 15 16 18 17 16 17 18 17 17
11 13 15 16 15 17 20 17 16 17 16 13 17 20 21 21 21 18 15 14 11 7 12 11 9 6 4 4 6 9 13 18 18 17 17 19 19 24
14 13 12 16 20 23 22 20 19 16 13 13 13 14 14 15 17 21 20 19 17 16 8 10 7 8 8 8 5 5 9 11 18 19 19 20 22 25
14 12 10 6 5 10 15 19 21 21 15 14 14 15 16 16 16 17 18 20 22 21 14 16 12 13 13 13 11 6 9 12 14 16 17 22 24 26
10 11 12 17 21 16 15 16 16 15 12 11 14 15 15 15 13 14 16 17 21 21 20 22 21 20 18 18 14 14 13 11 17 18 18 22 26 30
7 9 13 13 14 15 15 15 15 8 8 10 16 16 15 13 13 14 13 11 15 16 18 24 26 25 24 22 22 22 18 13 12 22 21 21 23 27
7 5 3 2 3 4 6 7 11 9 15 22 21 18 17 16 14 14 13 11 12 13 14 15 19 22 26 30 24 25 26 23 22 17 22 23 27 27
6 5 5 5 5 5 3 2 2 5 11 13 14 13 13 15 18 17 17 16 14 13 16 20 19 17 20 24 30 28 25 27 25 23 24 22 24 27
6 5 6 3 3 2 1 1 2 3 5 9 11 11 13 13 13 15 14 13 12 13 15 15 15 16 8 10 13 22 30 27 27 25 25 24 23 23
8 6 4 3 3 3 4 4 5 5 5 6 7 8 10 12 14 14 15 14 12 14 15 16 13 15 13 10 10 1 9 23 17 17 19 24 27 22
5 5 5 5 5 4 5 4 5 5 5 5 5 5 6 6 9 12 13 12 12 12 11 11 10 10 5 1 5 5 12 4 10 8 6 8 6 6
6 7 6 6 5 7 8 7 7 7 7 6 5 6 6 6 7 8 7 10 11 9 8 8 5 3 3 2 6 8 9 16 17 13 8 3 4 2
4 4 3 3 4 5 6 6 7 8 8 8 8 8 8 7 6 6 6 6 6 5 4 4 3 2 4 8 15 12 13 7 11 20 24 21 20 20
Wind_Direction
237 247 244 239 236 240 243 236 242 267 271 279 266 265 268 281 280 274 271 268 269 250 214 210 229 245 253 265 271 273 276 280 283 285 287 285 282 276
240 233 233 234 241 241 237 239 239 246 269 268 268 268 281 285 283 273 263 256 241 213 209 220 234 247 258 265 269 273 278 283 287 290 291 289 283 273
227 229 230 223 227 239 237 236 235 235 247 265 267 272 280 275 284 269 242 230 217 226 239 231 224 230 245 257 266 274 278 282 288 291 294 290 279 263
221 222 230 225 227 227 225 230 235 234 236 252 264 264 254 264 261 259 244 234 221 207 211 224 232 237 247 252 264 270 277 283 286 289 293 286 272 258
219 215 218 221 227 227 225 231 232 236 237 244 262 255 249 253 260 258 239 226 218 220 227 229 232 240 247 252 268 275 277 280 281 283 288 279 264 247
219 220 219 216 217 221 223 227 236 231 222 224 238 250 246 248 257 255 252 242 239 232 232 238 239 242 243 250 257 267 268 268 264 268 270 255 243 230
213 217 217 218 218 217 217 221 228 218 217 222 222 224 240 219 230 240 242 249 239 224 226 230 236 240 245 249 252 257 268 264 250 248 243 220 221 231
203 208 218 222 227 225 227 216 212 213 212 221 230 226 231 229 227 228 232 232 252 235 230 238 229 245 252 252 251 247 257 258 250 238 228 217 211 210
198 202 212 220 218 217 221 219 219 228 225 220 233 234 233 225 230 222 219 214 224 231 218 256 241 255 259 263 261 246 244 250 248 243 234 220 215 210
196 203 210 212 215 205 212 209 213 219 226 224 237 244 241 235 225 231 224 224 239 243 227 257 258 258 263 259 260 249 239 243 246 245 237 228 228 231
194 200 215 220 218 212 211 209 218 216 229 231 229 239 243 245 239 227 224 214 233 244 229 245 257 262 268 266 261 249 244 241 240 236 234 228 229 220
230 220 221 226 225 225 209 212 216 226 217 216 231 241 244 246 245 233 243 234 242 262 226 220 249 232 254 264 264 253 246 231 232 233 227 223 223 211
232 240 227 225 232 238 224 220 220 228 228 227 238 241 240 233 232 231 236 244 253 247 246 210 261 253 253 269 266 253 234 246 231 233 230 221 217 224
215 216 188 173 241 249 245 249 248 251 233 228 227 235 242 245 241 238 235 240 248 251 254 235 248 245 248 266 256 241 249 235 231 237 228 228 219 215
207 214 236 249 252 258 253 246 231 236 239 244 254 257 254 259 252 244 245 245 249 249 249 239 241 252 243 244 261 250 236 250 237 231 226 228 225 221
187 192 200 203 207 212 223 227 207 208 247 264 250 260 263 258 250 249 248 235 249 257 260 251 250 244 249 244 245 251 246 230 227 236 223 227 222 226
136 127 123 172 211 245 252 277 305 290 272 263 259 255 249 251 246 253 247 247 246 264 268 262 267 255 257 252 247 245 249 238 240 233 226 226 230 226
109 101 102 102 81 60 21 6 233 230 244 244 252 248 244 244 249 243 249 244 246 255 257 261 266 249 248 253 253 254 245 241 231 230 225 225 231 233
73 80 78 62 67 101 111 114 209 240 273 269 256 253 261 257 253 244 241 251 256 254 265 268 264 252 249 255 267 243 251 240 236 221 215 219 237 239
71 64 50 33 28 23 23 0 345 329 304 289 285 270 268 274 268 259 258 255 252 257 262 270 270 268 270 271 260 160 266 254 254 242 216 221 239 249
91 91 84 60 35 31 45 32 31 26 6 345 327 317 300 279 271 271 270 265 264 265 259 265 260 258 250 330 87 38 39 17 226 244 227 238 238 254
79 77 72 74 66 55 52 51 50 44 30 30 16 4 350 333 313 305 294 290 279 265 262 272 254 237 241 213 128 137 100 78 77 91 95 117 129 139
109 99 96 61 57 55 50 34 34 38 38 39 32 28 20 3 345 333 329 316 305 287 237 213 208 181 146 138 133 127 122 115 97 87 85 83 85 84